Theta_e
293 293 293 292 292 291 292 293 290 294 295 294 293 295 297 297 297 297 297 299 299 299 299 299 299 299 300 300 300 301 302 303 304 303 306 306 310 312 312 313 313 313 313 312
292 292 292 292 291 291 292 293 293 293 294 293 292 293 296 296 296 296 298 299 299 299 299 299 299 300 301 300 301 302 304 303 303 306 307 305 304 302 309 310 309 312 313 309
292 293 292 292 291 292 293 293 289 293 295 294 294 295 294 296 295 295 295 297 298 298 299 299 300 300 300 300 300 302 304 303 303 303 303 303 302 303 303 307 306 306 307 307
292 293 291 290 291 292 292 293 290 292 291 293 294 294 294 294 295 295 297 298 299 299 301 300 300 300 301 300 300 303 303 301 301 301 302 302 302 302 302 302 302 302 303 302
292 292 291 290 292 292 292 292 292 293 293 293 294 293 294 294 295 296 298 299 299 299 300 301 301 302 301 301 301 302 302 301 302 302 302 301 302 303 303 303 303 303 303 303
292 292 291 291 292 293 293 292 292 292 291 292 293 293 294 294 295 296 297 299 299 300 301 299 299 300 301 301 301 302 302 301 300 299 300 301 301 301 302 302 302 302 302 302
292 291 291 291 292 292 293 292 292 292 292 293 294 294 294 295 296 297 297 298 298 298 298 300 299 299 300 300 301 301 302 302 302 301 301 299 300 301 301 301 302 302 302 303
292 291 290 292 293 291 292 292 292 292 290 292 293 293 295 295 296 297 297 297 296 297 298 299 300 300 299 299 299 299 301 302 302 301 301 300 300 300 300 300 302 305 306 308
293 292 291 291 293 292 291 292 293 292 291 292 293 294 293 296 296 296 296 295 296 297 297 299 300 300 300 299 300 300 299 301 302 301 301 300 300 304 305 305 302 306 305 305
293 291 291 292 293 293 291 291 292 293 292 292 293 293 295 294 295 295 294 295 296 296 297 299 300 300 300 302 303 303 304 303 303 303 303 303 301 304 304 301 305 307 305 303
292 291 292 292 293 293 293 292 292 293 292 292 292 293 293 293 293 295 294 295 295 295 297 298 298 299 298 299 300 301 304 304 306 304 304 303 305 305 306 307 305 304 306 306
291 291 292 292 293 293 293 293 293 293 293 293 293 293 293 293 293 294 294 295 295 296 297 296 297 298 299 299 301 303 303 302 303 304 303 303 304 304 306 307 305 305 307 307
291 291 292 292 292 294 294 293 294 293 293 293 293 293 293 293 293 293 293 294 294 297 298 298 298 298 298 299 300 301 301 301 304 304 305 305 303 304 305 305 305 305 304 304
291 291 291 292 292 292 293 293 293 293 293 292 292 293 293 293 293 293 295 294 294 297 296 297 297 298 298 299 299 300 302 302 303 304 303 301 303 301 302 301 301 301 301 299
291 291 291 291 291 292 293 293 293 293 292 293 293 292 293 294 294 293 293 294 295 294 295 296 297 298 299 299 300 302 300 301 301 303 298 299 298 299 298 301 301 300 297 296
291 291 291 291 292 292 291 292 292 293 292 292 293 293 293 294 294 294 294 294 294 295 295 296 297 297 298 299 301 300 298 296 295 296 296 297 299 298 298 299 299 300 298 297
291 292 291 291 290 291 292 293 294 294 292 293 293 292 294 295 296 295 294 295 294 295 296 297 297 298 298 299 299 298 295 294 294 293 295 296 295 295 296 296 297 297 297 296
292 291 291 291 291 291 292 292 294 294 293 293 293 293 293 295 297 297 296 296 295 296 297 297 298 298 298 300 297 294 292 292 292 291 292 291 292 292 293 293 294 295 295 294
291 291 290 292 292 293 292 292 293 294 294 292 292 293 294 297 299 299 299 298 299 298 298 299 300 300 302 297 294 291 290 289 289 289 290 289 289 290 291 291 290 290 292 292
290 290 291 293 292 292 293 294 294 293 294 294 293 292 294 296 298 299 299 298 301 301 301 299 301 298 294 292 290 289 288 288 287 287 287 287 287 287 287 288 289 288 289 290
291 292 294 294 294 294 294 295 295 294 294 293 293 293 294 295 297 298 298 300 300 301 301 303 302 298 293 290 289 288 287 286 286 285 285 285 284 284 285 286 288 289 289 289
291 294 294 295 295 295 295 293 293 293 295 294 294 294 294 295 296 298 299 301 298 300 298 302 302 292 289 288 287 287 286 285 285 285 285 285 284 285 285 286 286 287 287 287
294 295 295 295 295 295 294 294 293 294 294 294 295 296 296 296 297 297 298 299 299 296 298 300 293 289 287 287 286 285 285 284 284 284 283 283 283 283 284 284 285 285 285 286
294 295 296 296 293 295 294 295 296 294 295 295 296 296 296 297 298 298 298 297 297 300 300 297 290 287 286 286 285 284 284 283 282 282 282 282 282 282 282 282 283 283 283 284
295 296 295 294 293 294 294 295 295 295 295 296 297 297 297 296 297 297 295 297 298 296 294 288 288 286 285 285 284 284 283 283 282 281 281 281 280 280 280 281 281 281 281 281
292 292 293 293 295 295 296 296 294 295 295 298 298 294 297 297 296 298 298 297 296 289 287 286 285 285 284 284 283 283 282 282 281 281 280 280 279 279 279 279 279 279 279 280
289 287 289 291 291 290 290 292 292 296 297 299 294 294 296 294 296 294 287 289 285 285 285 285 285 285 284 283 283 282 282 281 280 280 279 278 278 278 277 277 278 277 278 278
Wind_Speed
7 5 2 4 4 3 5 5 3 6 7 5 3 2 2 5 5 8 5 4 7 8 6 5 5 6 5 19 10 8 2 2 4 11 4 2 3 1 3 4 5 1 1 4
6 4 2 1 3 1 5 5 4 5 4 3 2 4 3 4 2 4 3 4 6 3 6 5 8 8 10 15 8 3 5 1 3 6 4 9 5 5 4 3 2 3 3 3
8 5 2 3 1 3 6 4 2 4 6 4 2 2 3 4 6 9 7 8 10 11 10 9 7 8 7 14 14 18 4 5 5 5 9 3 6 5 4 2 1 1 7 12
9 7 3 5 5 5 4 4 2 3 2 3 2 2 3 6 5 5 5 4 8 9 5 7 13 13 13 14 8 5 3 10 10 12 9 7 7 9 7 10 8 7 12 11
9 7 4 6 7 6 4 4 4 3 0 2 3 2 1 7 6 4 7 8 12 9 8 5 15 5 3 5 3 1 1 8 3 8 6 9 12 11 12 15 13 15 18 20
10 9 7 5 7 7 4 6 7 3 1 1 0 1 2 9 15 9 11 12 7 11 10 10 21 21 17 15 9 10 3 3 4 13 7 7 8 19 17 16 15 14 15 19
11 9 9 9 7 8 5 7 7 4 0 1 2 4 12 10 15 9 16 10 5 10 28 27 16 16 20 19 18 15 9 5 3 6 3 10 11 4 5 11 15 11 16 20
4 9 11 12 9 10 9 7 5 4 1 4 7 7 4 14 13 6 10 8 16 20 12 4 6 3 2 5 9 8 14 8 4 3 7 11 14 15 10 9 14 6 10 13
11 8 13 13 11 10 11 8 7 5 3 3 4 2 7 5 6 5 5 18 14 13 2 2 3 3 4 4 8 5 4 11 7 4 5 5 3 3 3 3 10 2 5 8
10 11 15 14 11 13 11 10 11 7 3 7 10 4 2 3 3 4 7 15 9 12 5 3 2 3 4 3 3 4 3 2 11 12 5 6 5 11 4 4 3 6 11 15
16 14 16 14 12 14 14 13 12 11 6 13 15 15 13 11 9 3 8 9 5 5 6 3 3 3 3 4 7 7 4 3 1 2 4 5 10 6 2 7 9 14 17 11
14 17 17 15 12 15 14 14 12 12 11 8 12 18 22 19 15 12 6 4 6 4 2 2 2 3 3 5 4 3 3 3 3 3 3 3 7 9 12 4 10 13 14 15
17 18 17 15 12 12 11 13 11 13 13 18 21 12 9 12 14 17 8 6 6 5 6 4 2 4 1 3 4 6 4 8 3 5 2 7 15 9 7 9 13 9 7 9
20 19 18 16 14 11 11 10 12 14 3 3 10 10 13 8 13 16 17 21 10 6 6 4 3 3 2 3 7 9 4 8 9 5 4 16 15 17 10 13 14 13 13 13
21 19 17 17 14 11 10 9 11 11 7 3 12 30 18 4 8 19 21 20 19 12 4 4 3 4 4 4 3 3 6 6 4 3 21 3 8 15 16 22 19 16 14 15
19 18 17 17 14 13 11 5 13 17 14 5 4 9 22 16 10 12 14 21 18 12 5 4 5 6 3 3 3 3 6 11 11 7 20 17 15 20 18 18 16 15 14 12
22 19 14 15 15 18 15 5 5 2 20 3 5 6 4 7 3 7 13 13 11 11 6 6 6 6 4 2 4 8 12 14 10 20 17 12 18 13 14 15 15 13 12 12
19 16 14 12 14 16 18 19 5 4 22 4 2 4 7 2 3 4 9 8 11 9 5 4 4 3 6 4 4 9 15 14 11 21 12 9 8 12 16 13 13 14 13 13
16 13 13 14 16 13 18 12 18 15 9 5 4 2 3 2 2 2 5 10 3 7 4 4 5 3 4 4 5 9 13 12 16 17 11 15 15 14 15 15 15 13 13 12
16 19 10 6 9 11 10 8 6 16 8 8 5 8 4 2 0 2 2 4 2 4 4 5 3 2 9 8 6 9 14 16 16 14 18 19 17 16 15 14 13 12 11 11
23 13 8 9 19 13 8 6 7 7 4 8 7 19 5 6 3 3 3 1 1 2 2 2 3 3 3 6 7 11 12 13 13 12 10 10 11 13 13 13 12 12 11 9
21 9 17 27 9 5 4 3 3 5 5 7 5 7 11 6 7 4 2 2 0 2 0 2 2 2 4 6 8 10 11 13 14 14 13 12 11 12 10 10 10 9 9 8
18 10 9 8 7 4 7 8 4 4 5 10 8 4 6 6 6 2 1 2 3 1 1 1 2 6 5 6 7 8 10 13 13 13 12 11 11 11 11 10 8 7 6 6
6 9 7 5 5 5 5 4 6 11 7 16 16 6 3 4 4 2 3 1 1 2 2 1 2 3 4 5 7 8 11 13 13 13 14 13 13 12 12 10 8 6 5 4
6 7 6 7 6 3 4 8 9 6 9 21 7 3 4 1 2 2 1 2 3 1 0 2 3 2 3 5 7 8 10 12 12 13 14 16 16 15 12 10 8 6 4 2
4 2 3 6 7 3 5 8 7 8 12 13 3 2 2 2 2 3 3 2 3 1 1 2 1 2 3 4 6 7 9 10 11 11 13 15 15 13 12 11 8 5 3 2
1 1 6 7 8 6 5 6 7 10 13 3 3 4 5 2 2 2 1 1 2 2 3 1 2 4 4 5 7 8 10 10 10 11 13 14 14 12 9 7 6 5 3 2
Wind_Direction
153 155 230 330 5 20 23 70 62 41 25 56 40 67 352 326 292 303 276 259 253 260 282 283 282 251 255 311 297 312 325 295 310 306 328 153 79 7 3 256 187 141 45 234
160 147 146 350 346 54 59 76 73 29 32 82 23 330 287 276 293 307 303 287 246 279 290 293 261 257 269 313 329 352 343 358 320 323 211 35 10 4 65 95 352 181 212 236
166 165 186 255 225 118 83 91 64 47 65 82 96 32 320 326 298 285 264 262 272 273 271 246 263 267 288 311 312 305 314 240 243 256 287 266 293 298 348 72 276 215 247 283
171 182 219 249 190 132 101 79 91 95 29 32 9 359 287 298 318 259 293 281 250 287 263 284 264 270 269 276 271 282 273 265 263 265 254 278 265 262 243 244 243 241 273 273
174 179 196 173 167 150 123 109 128 119 147 317 359 347 276 314 335 261 289 246 288 303 277 253 290 265 273 272 317 268 294 276 276 280 264 278 278 270 243 240 246 255 261 270
177 191 186 178 185 174 130 134 132 108 348 60 345 225 280 309 306 289 231 304 299 288 296 292 280 273 255 262 286 289 265 273 275 270 264 261 271 252 248 248 242 251 259 261
196 206 214 195 211 200 189 143 141 132 160 217 221 276 300 300 318 296 301 319 319 309 308 305 282 257 253 252 251 239 253 235 258 277 282 264 250 272 260 246 256 247 255 265
216 218 201 190 208 211 197 184 165 148 182 240 284 268 267 313 312 300 297 315 320 319 316 316 317 314 264 257 237 249 222 229 246 252 245 279 293 273 252 237 275 260 273 291
240 255 197 198 207 214 207 198 203 168 128 243 259 329 305 305 337 328 279 334 344 348 342 347 329 303 327 307 330 43 201 223 218 193 230 240 256 18 34 87 286 335 314 314
232 239 201 202 208 215 210 208 213 202 207 265 260 227 279 299 341 286 302 336 338 360 357 359 339 301 301 290 284 302 259 190 214 221 238 268 322 315 275 262 308 316 331 302
230 224 203 205 209 212 214 219 224 226 226 262 261 264 266 275 283 276 323 334 2 339 14 359 343 305 314 296 320 292 338 304 286 186 229 253 4 345 317 335 8 333 306 320
220 200 203 208 208 211 218 224 226 223 234 259 272 277 274 269 274 260 281 267 326 275 343 291 285 297 304 306 303 346 327 317 285 294 280 326 318 286 303 299 321 292 332 353
207 202 205 205 204 210 219 231 226 217 243 273 270 280 321 277 269 265 238 258 232 241 284 314 313 281 268 302 300 312 289 294 269 296 238 307 310 312 319 316 291 340 3 9
200 200 204 205 204 205 223 237 238 212 222 273 283 294 284 280 269 273 258 252 250 253 312 323 273 265 225 283 295 291 269 294 315 267 321 328 25 17 40 56 68 52 39 35
191 204 208 203 209 210 223 233 234 222 224 280 294 301 304 281 299 243 242 245 241 250 266 236 248 254 266 247 266 273 354 344 353 319 338 351 10 23 39 56 53 48 44 42
189 194 194 199 192 199 205 244 251 226 212 267 289 292 290 296 269 245 232 237 236 218 203 233 243 248 265 265 281 76 14 6 40 332 341 23 39 30 27 43 40 32 25 32
195 197 198 208 204 208 194 193 153 269 201 252 297 286 283 307 276 205 210 211 208 210 221 229 236 241 235 264 259 353 1 360 12 11 11 2 18 7 19 19 19 16 21 30
192 184 196 198 192 210 226 218 207 168 185 217 264 275 311 211 225 186 192 183 201 218 228 225 206 209 208 250 34 10 359 353 360 4 18 12 7 19 22 29 25 23 17 17
181 184 189 191 194 204 229 216 237 212 198 193 212 248 269 287 292 207 210 198 201 201 211 210 189 200 225 49 27 17 5 3 340 349 7 17 22 18 17 16 17 17 7 4
182 172 176 193 190 183 187 180 205 197 222 218 223 202 246 297 290 251 263 211 228 191 210 176 215 104 85 61 40 13 360 357 358 4 3 2 7 6 5 7 1 360 355 353
178 190 179 162 154 142 172 203 182 184 227 218 226 206 216 235 199 235 220 276 267 234 168 254 189 142 80 32 23 5 2 3 3 5 358 355 355 352 355 354 352 350 350 350
184 153 129 148 154 161 175 195 167 210 227 192 200 211 205 226 218 215 207 263 353 257 345 251 204 96 59 32 14 2 1 2 1 360 360 359 358 356 354 344 342 344 345 342
168 182 162 179 170 173 190 183 199 205 210 187 177 171 169 191 202 214 225 232 237 336 225 266 66 101 38 18 9 9 3 3 6 9 8 7 3 357 358 355 349 342 342 341
210 178 145 203 193 219 188 183 171 204 194 171 164 134 181 178 164 197 219 225 250 245 228 156 96 77 18 6 10 11 14 13 11 14 14 13 10 6 2 357 354 354 348 353
246 172 199 198 195 189 207 179 147 147 168 161 141 130 178 147 150 195 131 190 239 257 147 115 91 37 20 20 14 12 10 8 6 8 8 6 3 360 360 2 5 360 2 9
233 199 126 133 132 128 131 137 130 144 171 162 146 129 153 202 166 173 202 210 233 126 100 113 92 11 6 13 7 3 360 358 360 359 359 358 355 355 357 1 357 6 25 50
93 108 108 104 94 118 122 139 153 161 169 185 139 145 196 116 140 181 8 173 116 107 116 65 334 325 338 351 353 354 350 351 353 353 353 355 357 360 1 353 3 14 37 91